Home   Weather   Rabat   Past weeks
Flag for Morocco

Past Weather in Rabat, Morocco — Yesterday and Last 2 Weeks

Now
59 °F

Passing clouds.


Feels Like: 57 °F
Forecast: 82 / 62 °F
Wind: 9 mph from East

Location: Rabat-Sale

Current Time: May 26, 2019 at 7:19:34 am

Latest Report: May 26, 2019 at 6:30 am


Visibility: 4 mi

Pressure: 29.89 "Hg

Humidity: 82%

Dew Point: 54 °F

Location of RabatLocation

Past Weather in Rabat — Graph

°F

Rabat Temperature Yesterday

Maximum temperature yesterday: 73 °F (at 4:30 pm)
Minimum temperature yesterday: 54 °F (at 5:00 am)
Average temperature yesterday: 65 °F

High & Low Weather Summary for the Past Weeks

 TemperatureHumidityPressure
High99 °F (May 14, 1:30 pm)100% (May 21, 3:30 am)30.04 "Hg (May 21, 3:30 am)
Low48 °F (May 18, 1:00 am)13% (May 14, 1:30 pm)29.77 "Hg (May 14, 2:00 am)
Average67 °F68%29.94 "Hg
* Reported May 11 6:00 am — May 26 6:00 am, Rabat. Weather by CustomWeather, © 2019

Note: Actual official high and low records may vary slightly from our data, if they occured in-between our weather recording intervals... More about our weather records

Advertising

Rabat Weather History for the Previous 24 Hours

Scroll right to see more
 ConditionsComfort  
Time TempWeatherWind HumidityBarometerVisibility
6:00 am
Sun, May 26
54 °FPassing clouds.7 mph100%29.89 "Hg3 mi
5:30 am54 °FPassing clouds.8 mph94%29.89 "Hg3 mi
5:00 am52 °FCool.3 mph100%29.89 "Hg2 mi
4:30 am54 °FCool.5 mph94%29.89 "Hg2 mi
4:00 am54 °FCool.3 mph94%29.89 "Hg3 mi
3:30 am54 °FCool.3 mph94%29.89 "Hg3 mi
3:00 am54 °FCool.No wind94%29.89 "Hg3 mi
2:30 am52 °FCool.No wind94%29.89 "Hg4 mi
2:00 am54 °FCool.No wind88%29.89 "Hg3 mi
1:30 am54 °FCool.5 mph94%29.89 "Hg4 mi
1:00 am54 °FPassing clouds.No wind88%29.92 "Hg4 mi
12:30 am54 °FPassing clouds.3 mph94%29.92 "Hg4 mi
12:00 am54 °FPassing clouds.3 mph94%29.92 "Hg4 mi
11:30 pm
Sat, May 25
54 °FPassing clouds.No wind88%29.92 "Hg4 mi
11:00 pm54 °FPassing clouds.No wind88%29.92 "Hg4 mi
10:30 pm57 °FPassing clouds.No wind88%29.92 "Hg4 mi
10:00 pm55 °FPassing clouds.5 mph94%29.92 "Hg4 mi
9:30 pm61 °FPassing clouds.3 mph88%29.92 "Hg4 mi
9:00 pm64 °FPassing clouds.No wind83%29.92 "Hg4 mi
8:30 pm64 °FPassing clouds.7 mph83%29.92 "Hg4 mi
8:00 pm66 °FPassing clouds.8 mph78%29.92 "Hg5 mi
7:30 pm66 °FPassing clouds.9 mph78%29.92 "Hg5 mi
7:00 pm70 °FPassing clouds.10 mph69%29.92 "Hg5 mi
6:30 pm70 °FPassing clouds.13 mph57%29.89 "Hg5 mi
6:00 pm72 °FPassing clouds.13 mph50%29.89 "Hg5 mi
5:30 pm72 °FPassing clouds.14 mph53%29.89 "Hg5 mi
5:00 pm73 °FPassing clouds.16 mph50%29.92 "Hg5 mi
4:30 pm73 °FPassing clouds.17 mph47%29.92 "Hg5 mi
4:00 pm72 °FPassing clouds.15 mph53%29.92 "Hg5 mi
3:30 pm72 °FPassing clouds.15 mph65%29.92 "Hg5 mi
3:00 pm70 °FPassing clouds.15 mph69%29.92 "Hg5 mi
2:30 pm72 °FPassing clouds.14 mph61%29.92 "Hg5 mi
2:00 pm72 °FPassing clouds.15 mph61%29.92 "Hg5 mi
1:30 pm72 °FPassing clouds.14 mph61%29.92 "Hg5 mi
1:00 pm72 °FPassing clouds.13 mph61%29.95 "Hg5 mi
12:30 pm72 °FPassing clouds.13 mph61%29.95 "Hg5 mi
12:00 pm72 °FPassing clouds.12 mph61%29.95 "Hg5 mi
11:30 am72 °FPassing clouds.10 mph61%29.95 "Hg5 mi
11:00 am70 °FPassing clouds.10 mph60%29.95 "Hg5 mi
10:30 am70 °FPassing clouds.10 mph60%29.95 "Hg5 mi
10:00 am72 °FPassing clouds.5 mph61%29.95 "Hg5 mi
9:30 am72 °FPassing clouds.3 mph53%29.95 "Hg5 mi
9:00 am70 °FScattered clouds.3 mph60%29.95 "Hg5 mi
8:30 am68 °FScattered clouds.5 mph64%29.95 "Hg5 mi
8:00 am66 °FScattered clouds.7 mph68%29.95 "Hg5 mi
7:30 am64 °FScattered clouds.7 mph73%29.95 "Hg5 mi
7:00 am63 °FScattered clouds.5 mph83%29.95 "Hg5 mi
Weather by CustomWeather, © 2019

See weather overview